Meath Environmental Platform

Observations for Trim Market St

Time AQI Temp °C Hum % Pres Pa CO μg/m³ H₂S μg/m³ NO μg/m³ NO₂ μg/m³ O₃ μg/m³ SO₂ μg/m³ PM1 μg/m³ PM2.5 μg/m³ PM10 μg/m³
Tuesday 7 July 2026
20:46 1 26.4 54 57,289 0 2.07 0 10.09 17.08 0 2.14 4.82 6.09
20:45 1 26.4 54 57,232 0 2.92 0 10.81 13.38 0 3.56 5.84 8.25
20:44 1 26.4 54 57,172 0 1.83 0 13.92 11.73 0 2.85 6.87 8.97
20:43 1 26.5 54 57,102 0 0.87 0 10.3 15.28 0 2.85 5.34 7.53
20:42 1 26.5 54 57,054 0 1.67 0 10.22 12.87 0 4.28 6.37 8.25
20:41 1 26.5 54 57,011 0 2.73 0 10.62 12.12 0 3.56 5.36 7.53
20:40 1 26.6 54 56,942 0 3.71 0 13.71 18.95 0 3.56 5.87 8.25
20:39 1 26.6 53 56,844 0 1.39 0 10.43 12.89 0 2.85 5.88 7.53
20:38 1 26.6 53 56,772 0 3.18 0 11.84 13.28 0 2.85 6.91 8.98
20:37 1 26.6 53 56,716 0 2.17 0 16.94 10.34 0 3.56 5.89 7.53
20:36 1 26.7 53 56,657 0 1.07 0 10.62 12.98 0 2.85 5.38 6.8
20:35 1 26.7 53 56,631 0 0.46 0 11.32 11.84 0 4.28 6.4 8.25
20:30 1 26.8 53 56,583 0 2.72 0 10.12 10.4 0 3.56 6.41 8.98
20:28 1 26.9 53 56,494 0 3.81 0 15.52 10.32 0 3.56 6.42 8.26
20:27 1 26.9 53 56,417 0 4.9 0 13.23 12.01 0 3.56 6.43 8.99
20:24 1 27 52 56,176 0 1.99 0 8.46 16.36 0 2.85 5.43 6.79
20:17 1 27.2 52 55,982 0 3.26 0 11.46 13.24 0 1.43 4.95 6.06
20:16 1 27.2 52 55,945 0 3.74 0 10.77 16.22 0 4.28 6.49 8.26
20:15 1 27.2 51 55,889 0 3.2 0 11.49 18.94 0 2.85 5.47 6.79
20:13 1 27.3 51 55,808 0 3.55 0 9.38 13.97 0 2.85 5.99 9